Flag Weather past 2 weeks in Mexicali, Baja California, Mexico

Now
78 °F

Sunny.


Feels Like: 77 °F
Forecast: 49 / 80 °F
Wind: No wind

Location: Imperial County Airport

Current Time: Nov 27, 2014 at 1:12:30 PM

Latest Report: Nov 27, 2014 at 11:53 AM


Visibility: 10 mi

Pressure: 30.10 "Hg

Humidity: 19%

Dew point: 33 °F

Location of MexicaliLocation

Historic Weather in Mexicali — Graph

°F

Mexicali temperature yesterday

Maximum temperature yesterday: 77 °F (at 2:53 PM)
Minimum temperature yesterday: 43 °F (at 5:53 AM)
Average temperature yesterday: 58 °F

Past Weeks' High & Low Weather Summary

 TemperatureHumidityPressure
High80 °F (Nov 12, 1:53 PM)80% (Nov 22, 12:53 AM)30.45 "Hg (Nov 22, 12:53 AM)
Low41 °F (Nov 18, 3:53 AM)6% (Nov 16, 12:53 PM)29.81 "Hg (Nov 12, 2:53 PM)
Average61 °F39%30.07 "Hg
* Reported Nov 12 11:53 AM — Nov 27 11:53 AM, Mexicali, Weather by CustomWeather, © 2014

Note: Actual official high and low records may vary slightly from our data, if they occured in-between our weather recording intervals... More about our weather records

Advertising

Mexicali weather history for previous 24 hours

 ConditionsComfort  
Time TempWeatherWind HumidityBarometerVisibility
11:53 AM
Nov 27
78 °FSunny.No wind19%30.10 "Hg10 mi
10:53 AM75 °FSunny.3 mph18%30.14 "Hg10 mi
9:53 AM68 °FSunny.No wind27%30.16 "Hg10 mi
8:53 AM64 °FSunny.No wind33%30.17 "Hg10 mi
7:53 AM53 °FSunny.3 mph41%30.16 "Hg10 mi
6:53 AM45 °FSunny.3 mph51%30.16 "Hg10 mi
5:53 AM47 °FClear.3 mph48%30.15 "Hg10 mi
4:53 AM46 °FClear.3 mph50%30.13 "Hg10 mi
3:53 AM48 °FClear.No wind44%30.12 "Hg10 mi
2:53 AM48 °FClear.7 mph43%30.13 "Hg10 mi
1:53 AM49 °FClear.5 mph46%30.14 "Hg10 mi
12:53 AM49 °FClear.6 mph48%30.15 "Hg10 mi
11:53 PM
Nov 26
50 °FClear.5 mph54%30.16 "Hg10 mi
10:53 PM52 °FClear.No wind47%30.17 "Hg10 mi
9:53 PM53 °FClear.7 mph56%30.16 "Hg10 mi
8:53 PM52 °FClear.6 mph57%30.16 "Hg10 mi
7:53 PM58 °FClear.No wind46%30.16 "Hg10 mi
6:53 PM61 °FClear.No wind39%30.16 "Hg10 mi
5:53 PM65 °FClear.5 mph33%30.15 "Hg10 mi
4:53 PM70 °FClear.3 mph28%30.15 "Hg10 mi
3:53 PM76 °FSunny.5 mph16%30.16 "Hg10 mi
2:53 PM77 °FSunny.5 mph16%30.17 "Hg10 mi
1:53 PM76 °FSunny.3 mph17%30.18 "Hg10 mi
Weather by CustomWeather, © 2014

See weather overviewHow to use our weather pages